Regional Weather Roundup
Issued by NWS

Home | Current Version | Previous Version | Text Only | Print | Product List | Glossary Off
Versions: 1 2 3 4 5 6 7 8 9 10 11 12 13 14 15 16 17 18 19 20 21 22 23 24 25 26 27 28 29 30 31 32 33 34 35 36 37 38 39 40 41 42 43 44 45 46 47 48 49 50

334
ASUS44 KMEG 242300
RWRTN
TENNESSEE HOURLY STATE WEATHER ROUNDUP
NATIONAL WEATHER SERVICE MEMPHIS TN
600 PM CDT TUE MAY 24 2016

TNZ002-004-019-021-049-052-054-088>092-250000-
WEST TENNESSEE

CITY           SKY/WX    TMP DP  RH WIND       PRES   REMARKS
MEMPHIS INTL   CLOUDY    85  64  49 S13       30.01S
NWS MEMPHIS      N/A     85 N/A N/A MISG        N/A
JACKSON        CLOUDY    82  64  54 CALM      30.05R
DYERSBURG      CLOUDY    77  63  61 N10       30.06R
UNION CITY     MOSUNNY   79  64  61 NW9       30.07R
PARIS          MOSUNNY   79  61  53 W3        30.08R
LEXINGTON      SUNNY     81  61  50 CALM      30.06R
$$

TNZ008-025-027-028-033-062-065-066-250000-
NORTH MIDDLE TENNESSEE

CITY           SKY/WX    TMP DP  RH WIND       PRES   REMARKS
NASHVILLE      MOSUNNY   85  51  31 SW3       30.07S
CLARKSVILLE    SUNNY     81  57  43 SW7       30.06R
COOKEVILLE     SUNNY     84  54  34 SW5       30.09S
CROSSVILLE     SUNNY     78  50  37 N5        30.14F
$$

TNZ061-075-076-078-094-096-097-250000-
SOUTH MIDDLE TENNESSEE

CITY           SKY/WX    TMP DP  RH WIND       PRES   REMARKS
TULLAHOMA      SUNNY     81  46  30 S7        30.10F
WINCHESTER     SUNNY     84  52  32 S7        30.09S
MCMINNVILLE    SUNNY     82  54  36 CALM      30.10S
COLUMBIA       SUNNY     84  61  45 S5        30.06R
SHELBYVILLE    SUNNY     84  54  34 S7        30.09S
$$

TNZ017-018-042-046-047-250000-
NORTHEAST TENNESSEE

CITY           SKY/WX    TMP DP  RH WIND       PRES   REMARKS
TRI CITIES     MOSUNNY   77  48  35 W7        30.14R
$$

TNZ012-013-036-069-073-074-250000-
CENTRAL EAST TENNESSEE

CITY           SKY/WX    TMP DP  RH WIND       PRES   REMARKS
KNOXVILLE      MOSUNNY   81  49  32 SW6       30.11R
OAK RIDGE      SUNNY     82  51  34 S6        30.11S
GATLINBURG     SUNNY     79  46  31 W6        30.11R
$$

TNZ083-085-099-250000-
SOUTHEAST TENNESSEE

CITY           SKY/WX    TMP DP  RH WIND       PRES   REMARKS
CHATTANOOGA    MOSUNNY   85  50  29 W5        30.09S
$$

SKY/WX REPORTED AS FAIR MEANS FEW OR NO CLOUDS BELOW
12 THOUSAND FEET.





USA.gov is the U.S. government's official web portal to all federal, state and local government web resources and services.